Aviation Digital Data Service (ADDS)

Output produced by METARs form (2057 UTC 29 May 2017)
found at http://www.aviationweather.gov/adds/metars/
 
VEAT 291500Z 09003KT 4000 BR SCT020 OVC090 28/26 Q0999 NOSIG
VIAG 291830Z 06004KT 6000 FEW030 27/22 Q1000 NOSIG
VAAH 292030Z 25010KT 4000 FU SCT020 33/23 Q1000 NOSIG
TAF VAAH 291700Z 2918/3024 22008KT 4000 FU NSC 
     BECMG 3001/3003 25004KT 3000 FU FEW100 
     BECMG 3004/3006 25008KT 6000 NSC 25008KT NSC 
     BECMG 3012/3014 23008KT 4000 FU NSC
       
VIAG 291830Z 06004KT 6000 FEW030 27/22 Q1000 NOSIG
VIAR 292030Z VRB03KT 3000 DU FEW040 29/18 Q1000 NOSIG
TAF VIAR 291700Z 2918/3024 14006KT 3000 DU FEW040 SCT100 
     TEMPO 2920/3001 270G20KT 2000 -TSRA SCT030 FEW035CB BKN090 
     BECMG 3006/3008 11007G17KT 5000 HZ 
     TEMPO 3009/3014 FEW035CB 
     BECMG 3015/3017 VRB02KT 4000 HZ FEW100 
     BECMG 3021/3022 00000KT 3000 HZ
       
VIDP 292030Z 10004KT 3500 HZ FEW040 27/22 Q1000 NOSIG
TAF VIDP 291700Z 2918/3024 09005KT 3500 HZ FEW040 
     TEMPO 2922/3002 27010G20KT 2000 -TSRA SCT030 FEW035CB BKN090 
     BECMG 3006/3008 12007G17KT 4000 HZ SCT035 
     TEMPO 3012/3018 29010G20KT 2000 -TSRA FEW035CB BKN090 
     BECMG 3020/3022 09005KT 3000 HZ FEW035
       
VIJO 291600Z 28003KT 6000 FEW025 SCT030 36/23 Q0999 TEMPO -RA
VIJP 292030Z 07006KT 4000 HZ FEW035 SCT100 29/21 Q1000 NOSIG
TAF VIJP 291400Z 2915/2924 10006KT 3000 HZ SCT035
       
VILK 292030Z 00000KT 3000 HZ FEW020 SCT100 28/22 Q0998
TAF VILK 291700Z 2918/3024 VRB02KT 3000 HZ SCT020 BKN100 
     TEMPO 2920/3002 32010G20KT 0800 DS TSRA FEW030CB BKN090 
     BECMG 3000/3002 11004KT 2000 HZ 
     BECMG 3004/3006 3000 HZ FEW025 SCT100 
     BECMG 3009/3011 05007KT 4000 HZ DU 
     TEMPO 3010/3016 1500 TSRA FEW030CB BKN090 
     BECMG 3018/3020 VRB02KT 2500 HZ SCT100
       
VAAH 292030Z 25010KT 4000 FU SCT020 33/23 Q1000 NOSIG
TAF VAAH 291700Z 2918/3024 22008KT 4000 FU NSC 
     BECMG 3001/3003 25004KT 3000 FU FEW100 
     BECMG 3004/3006 25008KT 6000 NSC 25008KT NSC 
     BECMG 3012/3014 23008KT 4000 FU NSC
       
VAAU 291800Z 25012KT 6000 NSC 29/21 Q1006 NOSIG
VABB 292030Z 23010KT 4000 HZ FEW020 SCT025 30/27 Q1003 NOSIG
TAF VABB 291100Z 2912/3018 24008G18KT 4000 HZ SCT020 SCT025 FEW025TCU 
     TEMPO 2912/2918 2000 -TSRA/-RA SCT015 FEW030CB BKN080 
     BECMG 2915/2917 24010KT 
     BECMG 3005/3007 24008G18KT 5000 HZ 
     TEMPO 3009/3018 2000 -TSRA/-RA SCT015 FEW030CB BKN080 
     BECMG 3015/3017 24010KT 4000 HZ
       
VABP 291630Z 08012KT 6000 SCT100 33/16 Q1003 NOSIG
VANP 292030Z 05005KT 4000 HZ FEW020 FEW030CB SCT100 30/18 Q1001 NOSIG
TAF VANP 291700Z 2918/3024 VRB03KT 5000 HZ FEW020 
     BECMG 3000/3002 27008KT 
     BECMG 3004/3006 6000 FEW020 
     BECMG 3012/3014 VRB03KT 5000 HZ SCT020 SCT025 FEW030CB 
     TEMPO 3010/3014 32010G20KT 1500 -TSRA SCT020 SCT025 FEW030CB BKN090
       
VARK 291600Z 23008KT 6000 SCT020 32/24 Q1000
VAUD 291500Z 27004KT 4000 HZ FEW035 33/23 Q1001 BECMG 5000 HZ
VIAR 292030Z VRB03KT 3000 DU FEW040 29/18 Q1000 NOSIG
TAF VIAR 291700Z 2918/3024 14006KT 3000 DU FEW040 SCT100 
     TEMPO 2920/3001 270G20KT 2000 -TSRA SCT030 FEW035CB BKN090 
     BECMG 3006/3008 11007G17KT 5000 HZ 
     TEMPO 3009/3014 FEW035CB 
     BECMG 3015/3017 VRB02KT 4000 HZ FEW100 
     BECMG 3021/3022 00000KT 3000 HZ
       
VAAU 291800Z 25012KT 6000 NSC 29/21 Q1006 NOSIG
VOBG 291800Z 24015KT 9999 FEW015 24/20 Q1011
TAF VOBG 292000Z 2921/3006 29010KT 6000 SCT015
       
VEAT 291500Z 09003KT 4000 BR SCT020 OVC090 28/26 Q0999 NOSIG
VEBN 291830Z 00000KT 4000 HZ NSC 28/17 Q0999 NOSIG
TAF VEBN 291700Z 2918/3024 VRB02KT 3500 HZ FEW100 
     BECMG 3001/3003 12004KT 2500 HZ FEW025 SCT100 
     TEMPO 2922/3003 FEW030CB 
     BECMG 3009/3011 03005KT 5000 HZ SCT020 SCT100 
     BECMG 3018/3020 VRB02KT 3000 HZ SCT100 
     TEMPO 3009/3015 1500 TSRA FEW030CB BKN090
       
VEBS 291800Z 18005KT 5000 HZ FEW020 31/27 Q0998 NOSIG
VECC 292030Z 04007KT 2800 -RA SCT018 BKN090 26/24 Q0997 NOSIG
TAF VECC 291700Z 2918/3024 10005KT 2800 TSRA HZ SCT015 FEW025CB BKN090 
     BECMG 3002/3004 01011KT 2500 TSRA HZ 
     BECMG 3007/3009 3500 RA HZ SCT018 SCT090 
     TEMPO 3012/3016 1500 TSRA SCT015 FEW025CB BKN090
       
VEGT 291700Z 04002KT 3000 BR SCT020 BKN100 29/26 Q1001 NOSIG
VEGY 291600Z 29003KT 4000 HZ SCT018 BKN100 31/22 Q0999
VEPT 291930Z 05002KT 3000 HZ FEW100 30/25 Q0998 NOSIG
TAF VEPT 291100Z 2912/3018 05005KT 3000 HZ NSC 
     BECMG 2923/3001 00000 KT 2500 HZ FEW018 SCT100 
     BECMG 3003/3005 4000 HZ 
     BECMG 3007/3009 09008KT 5000 HZ SCT100 
     BECMG 3011/3013 09005KT 4000 HZ 
     BECMG 3015/3017 3000 HZ
       
VERC 292000Z 34002KT 2500 HZ SCT015 FEW030CB BKN100 22/22 Q1004 NOSIG
VOBG 291800Z 24015KT 9999 FEW015 24/20 Q1011
TAF VOBG 292000Z 2921/3006 29010KT 6000 SCT015
       
VOBL 292030Z 25005KT 6000 FEW012 23/21 Q1010 NOSIG
TAF VOBL 292000Z 2921/3006 29010KT 6000 SCT015
       
VOBZ 291800Z 00000KT 2500 HZ FEW020 33/25 Q0999 NOSIG
VOCB 292000Z 20010KT 5000 BR FEW015 24/23 Q1009 NOSIG
TAF VOCB 291700Z 2918/3024 20010KT 6000 FEW015 SCT080 
     BECMG 2921/2922 VRB02KT 4000 BR 
     BECMG 3004/3005 20010KT 6000 
     TEMPO 3009/3015 20010G20KT SCT015 FEW025TCU/CB BKN080 
     BECMG 3021/3022 VRB02KT 4000 BR
       
VOCI 292030Z 00000KT 3000 BR SCT015 OVC080 24/22 Q1008 NOSIG
TAF VOCI 291700Z 2918/3024 29010KT 2000 RA BR SCT008 SCT012 FEW025CB OVC080 
     TEMPO 2922/3003 1500 TSRA RA 
     BECMG 3004/3005 29010G20KT 3000 RA BR SCT010 SCT015 BKN080 
     TEMPO 3010/3014 1500 TSRA RA SCT008 SCT012 FEW025CB OVC080 
     BECMG 3015/3016 29010KT 2000 RA BR SCT010 SCT015 BKN080 
     TEMPO 3022/3024 1500 TSRA RA SCT008 SCT012 FEW025CB OVC080
       
VOCL 292030Z 12003KT 5000 -DZ FEW008 SCT012 FEW025CB BKN080 25/24 Q1007 NOSIG
TAF VOCL 291700Z 2918/3024 29010KT 5000 RA BR SCT008 SCT012 FEW025CB OVC080 
     TEMPO 2922/3003 1500 TSRA RA 
     BECMG 3004/3005 5000 RA BR SCT010 SCT015 BKN080 
     TEMPO 3010/3014 29010G20KT 1500 TSRA RA SCT008 SCT012 FEW025CB OVC080 
     BECMG 3015/3016 29010KT 4000 RA BR SCT010 SCT015 BKN080
       
VOGO 291600Z 28008G15KT 4000 RA SCT014 FEW022TCU FEW090 28/24 Q1006 TEMPO 3000 RA/DZ
TAF VOHB 291100Z 2912/2921 29010KT 6000 SCT015 
     TEMPO 2912/2918 5000 TSRA RA SCT012 SCT020 FEW025CB
       
VOHS 292030Z 28014KT 6000 FEW020 30/22 Q1005 NOISIG
TAF VOHS 291700Z 2918/3024 24005KT 6000 FEW020 
     TEMPO 2919/2923 29006KT 5000 HZ FEW025 FEW030TCU SCT100 
     TEMPO 2923/3003 30006KT 5000 DZ HZ FEW030TCU SCT100 
     BECMG 3004/3006 27010KT 6000 FEW020 SCT100 
     TEMPO 3010/3019 24006KT 6000 FEW030CB SCT100 
     TEMPO 3021/3024 VRB04KT 4000 DZ HZ FEW030TCU SCT100 
       
VOHY 291600Z VRB03KT 6000 FEW020 33/15 Q1005 NOSIG
VOMD 291900Z 28006KT 6000 SCT018 BKN100 27/25 Q1006 NOSIG
TAF VOMD 291700Z 2918/3024 32010KT 5000 HZ FEW020 BKN100 
     TEMPO 2918/2921 SCT016 FEW025CB BKN080 
     BECMG 2921/2922 VRB02KT 3000 HZ 
     BECMG 3003/3004 32010KT 6000 
     TEMPO 3009/3015 4000 -TSRA/RA SCT016 FEW025CB BKN080 
     BECMG 3021/3022 VRB02KT 3000 HZ
       
VOML 291830Z 00000KT 6000 SCT015 FEW025CB 27/25 Q1008 NOSIG
TAF VOML 292000Z 2921/3006 09005KT 6000 SCT015
       
VOMM 292030Z 20007KT 6000 NSC 33/24 Q1001 NOSIG
TAF VOMM 291700Z 2918/3024 25010KT 5000 HZ FEW020 SCT100 
     BECMG 3003/3004 6000 
     TEMPO 3003/3009 25010G20KT 
     BECMG 3010/3011 16010KT 
     TEMPO 3012/3018 4000 -TSRA/RA SCT020 FEW025TCU/CB BKN100 
     BECMG 3018/3019 25010KT 5000 HZ
       
VOTP 291500Z 29005KT 6000 FEW020 35/21 Q1001
VOTR 292030Z 28010G20KT 5000 HZ FEW016 SCT100 30/22 Q1004 NOSIG
TAF VOTR 291700Z 2918/3024 29010KT 5000 HZ FEW016 SCT100 
     TEMPO 2918/2921 SCT016 FEW025CB BKN100 
     BECMG 3003/3004 29015G25KT 6000 
     TEMPO 3009/3015 SCT016 FEW025TCU/CB BKN100 
     BECMG 3018/3019 29010KT 4000 HZ
       
VOTV 292030Z 30010G20KT 3000 -RA FEW010 SCT012 FEW025CB OVC080 25/23 Q1008 TEMPO 2000 RA
TAF VOTV 291700Z 2918/3024 29010KT 2000 RA BR SCT010 SCT015 FEW025CB OVC080 
     TEMPO 2922/3003 1500 TSRA RA 
     BECMG 3004/3005 29010G20KT 2000 RA BR SCT010 SCT015 BKN080 
     TEMPO 3010/3014 1500 TSRA RA SCT008 SCT012 FEW025CB OVC080 
     BECMG 3015/3016 30010KT 2000 RA BR SCT010 SCT015 BKN080 
     TEMPO 3022/3024 1500 TSRA RA SCT008 SCT012 FEW025CB OVC080
       
VOVZ 291800Z 00000KT 5000 HZ FEW018 32/27 Q0998 NOSIG
VIAG 291830Z 06004KT 6000 FEW030 27/22 Q1000 NOSIG
VIAR 292030Z VRB03KT 3000 DU FEW040 29/18 Q1000 NOSIG
TAF VIAR 291700Z 2918/3024 14006KT 3000 DU FEW040 SCT100 
     TEMPO 2920/3001 270G20KT 2000 -TSRA SCT030 FEW035CB BKN090 
     BECMG 3006/3008 11007G17KT 5000 HZ 
     TEMPO 3009/3014 FEW035CB 
     BECMG 3015/3017 VRB02KT 4000 HZ FEW100 
     BECMG 3021/3022 00000KT 3000 HZ
       
VIDP 292030Z 10004KT 3500 HZ FEW040 27/22 Q1000 NOSIG
TAF VIDP 291700Z 2918/3024 09005KT 3500 HZ FEW040 
     TEMPO 2922/3002 27010G20KT 2000 -TSRA SCT030 FEW035CB BKN090 
     BECMG 3006/3008 12007G17KT 4000 HZ SCT035 
     TEMPO 3012/3018 29010G20KT 2000 -TSRA FEW035CB BKN090 
     BECMG 3020/3022 09005KT 3000 HZ FEW035
       
VIJO 291600Z 28003KT 6000 FEW025 SCT030 36/23 Q0999 TEMPO -RA
VIJP 292030Z 07006KT 4000 HZ FEW035 SCT100 29/21 Q1000 NOSIG
TAF VIJP 291400Z 2915/2924 10006KT 3000 HZ SCT035
       
VILK 292030Z 00000KT 3000 HZ FEW020 SCT100 28/22 Q0998
TAF VILK 291700Z 2918/3024 VRB02KT 3000 HZ SCT020 BKN100 
     TEMPO 2920/3002 32010G20KT 0800 DS TSRA FEW030CB BKN090 
     BECMG 3000/3002 11004KT 2000 HZ 
     BECMG 3004/3006 3000 HZ FEW025 SCT100 
     BECMG 3009/3011 05007KT 4000 HZ DU 
     TEMPO 3010/3016 1500 TSRA FEW030CB BKN090 
     BECMG 3018/3020 VRB02KT 2500 HZ SCT100
       
VABP 291630Z 08012KT 6000 SCT100 33/16 Q1003 NOSIG
VEBS 291800Z 18005KT 5000 HZ FEW020 31/27 Q0998 NOSIG
VERC 292000Z 34002KT 2500 HZ SCT015 FEW030CB BKN100 22/22 Q1004 NOSIG
VOCL 292030Z 12003KT 5000 -DZ FEW008 SCT012 FEW025CB BKN080 25/24 Q1007 NOSIG
TAF VOCL 291700Z 2918/3024 29010KT 5000 RA BR SCT008 SCT012 FEW025CB OVC080 
     TEMPO 2922/3003 1500 TSRA RA 
     BECMG 3004/3005 5000 RA BR SCT010 SCT015 BKN080 
     TEMPO 3010/3014 29010G20KT 1500 TSRA RA SCT008 SCT012 FEW025CB OVC080 
     BECMG 3015/3016 29010KT 4000 RA BR SCT010 SCT015 BKN080
       
VOMM 292030Z 20007KT 6000 NSC 33/24 Q1001 NOSIG
TAF VOMM 291700Z 2918/3024 25010KT 5000 HZ FEW020 SCT100 
     BECMG 3003/3004 6000 
     TEMPO 3003/3009 25010G20KT 
     BECMG 3010/3011 16010KT 
     TEMPO 3012/3018 4000 -TSRA/RA SCT020 FEW025TCU/CB BKN100 
     BECMG 3018/3019 25010KT 5000 HZ
       
VABB 292030Z 23010KT 4000 HZ FEW020 SCT025 30/27 Q1003 NOSIG
TAF VABB 291100Z 2912/3018 24008G18KT 4000 HZ SCT020 SCT025 FEW025TCU 
     TEMPO 2912/2918 2000 -TSRA/-RA SCT015 FEW030CB BKN080 
     BECMG 2915/2917 24010KT 
     BECMG 3005/3007 24008G18KT 5000 HZ 
     TEMPO 3009/3018 2000 -TSRA/-RA SCT015 FEW030CB BKN080 
     BECMG 3015/3017 24010KT 4000 HZ
       
VOCI 292030Z 00000KT 3000 BR SCT015 OVC080 24/22 Q1008 NOSIG
TAF VOCI 291700Z 2918/3024 29010KT 2000 RA BR SCT008 SCT012 FEW025CB OVC080 
     TEMPO 2922/3003 1500 TSRA RA 
     BECMG 3004/3005 29010G20KT 3000 RA BR SCT010 SCT015 BKN080 
     TEMPO 3010/3014 1500 TSRA RA SCT008 SCT012 FEW025CB OVC080 
     BECMG 3015/3016 29010KT 2000 RA BR SCT010 SCT015 BKN080 
     TEMPO 3022/3024 1500 TSRA RA SCT008 SCT012 FEW025CB OVC080
       
VOCB 292000Z 20010KT 5000 BR FEW015 24/23 Q1009 NOSIG
TAF VOCB 291700Z 2918/3024 20010KT 6000 FEW015 SCT080 
     BECMG 2921/2922 VRB02KT 4000 BR 
     BECMG 3004/3005 20010KT 6000 
     TEMPO 3009/3015 20010G20KT SCT015 FEW025TCU/CB BKN080 
     BECMG 3021/3022 VRB02KT 4000 BR
       
VEAT 291500Z 09003KT 4000 BR SCT020 OVC090 28/26 Q0999 NOSIG
VEBN 291830Z 00000KT 4000 HZ NSC 28/17 Q0999 NOSIG
TAF VEBN 291700Z 2918/3024 VRB02KT 3500 HZ FEW100 
     BECMG 3001/3003 12004KT 2500 HZ FEW025 SCT100 
     TEMPO 2922/3003 FEW030CB 
     BECMG 3009/3011 03005KT 5000 HZ SCT020 SCT100 
     BECMG 3018/3020 VRB02KT 3000 HZ SCT100 
     TEMPO 3009/3015 1500 TSRA FEW030CB BKN090
       
VEBS 291800Z 18005KT 5000 HZ FEW020 31/27 Q0998 NOSIG
VECC 292030Z 04007KT 2800 -RA SCT018 BKN090 26/24 Q0997 NOSIG
TAF VECC 291700Z 2918/3024 10005KT 2800 TSRA HZ SCT015 FEW025CB BKN090 
     BECMG 3002/3004 01011KT 2500 TSRA HZ 
     BECMG 3007/3009 3500 RA HZ SCT018 SCT090 
     TEMPO 3012/3016 1500 TSRA SCT015 FEW025CB BKN090
       
VEGT 291700Z 04002KT 3000 BR SCT020 BKN100 29/26 Q1001 NOSIG
VEGY 291600Z 29003KT 4000 HZ SCT018 BKN100 31/22 Q0999
VEPT 291930Z 05002KT 3000 HZ FEW100 30/25 Q0998 NOSIG
TAF VEPT 291100Z 2912/3018 05005KT 3000 HZ NSC 
     BECMG 2923/3001 00000 KT 2500 HZ FEW018 SCT100 
     BECMG 3003/3005 4000 HZ 
     BECMG 3007/3009 09008KT 5000 HZ SCT100 
     BECMG 3011/3013 09005KT 4000 HZ 
     BECMG 3015/3017 3000 HZ
       
VERC 292000Z 34002KT 2500 HZ SCT015 FEW030CB BKN100 22/22 Q1004 NOSIG
VAAH 292030Z 25010KT 4000 FU SCT020 33/23 Q1000 NOSIG
TAF VAAH 291700Z 2918/3024 22008KT 4000 FU NSC 
     BECMG 3001/3003 25004KT 3000 FU FEW100 
     BECMG 3004/3006 25008KT 6000 NSC 25008KT NSC 
     BECMG 3012/3014 23008KT 4000 FU NSC
       
VAAU 291800Z 25012KT 6000 NSC 29/21 Q1006 NOSIG
VABB 292030Z 23010KT 4000 HZ FEW020 SCT025 30/27 Q1003 NOSIG
TAF VABB 291100Z 2912/3018 24008G18KT 4000 HZ SCT020 SCT025 FEW025TCU 
     TEMPO 2912/2918 2000 -TSRA/-RA SCT015 FEW030CB BKN080 
     BECMG 2915/2917 24010KT 
     BECMG 3005/3007 24008G18KT 5000 HZ 
     TEMPO 3009/3018 2000 -TSRA/-RA SCT015 FEW030CB BKN080 
     BECMG 3015/3017 24010KT 4000 HZ
       
VABP 291630Z 08012KT 6000 SCT100 33/16 Q1003 NOSIG
VANP 292030Z 05005KT 4000 HZ FEW020 FEW030CB SCT100 30/18 Q1001 NOSIG
TAF VANP 291700Z 2918/3024 VRB03KT 5000 HZ FEW020 
     BECMG 3000/3002 27008KT 
     BECMG 3004/3006 6000 FEW020 
     BECMG 3012/3014 VRB03KT 5000 HZ SCT020 SCT025 FEW030CB 
     TEMPO 3010/3014 32010G20KT 1500 -TSRA SCT020 SCT025 FEW030CB BKN090
       
VARK 291600Z 23008KT 6000 SCT020 32/24 Q1000
VAUD 291500Z 27004KT 4000 HZ FEW035 33/23 Q1001 BECMG 5000 HZ
VIAG 291830Z 06004KT 6000 FEW030 27/22 Q1000 NOSIG
VIAR 292030Z VRB03KT 3000 DU FEW040 29/18 Q1000 NOSIG
TAF VIAR 291700Z 2918/3024 14006KT 3000 DU FEW040 SCT100 
     TEMPO 2920/3001 270G20KT 2000 -TSRA SCT030 FEW035CB BKN090 
     BECMG 3006/3008 11007G17KT 5000 HZ 
     TEMPO 3009/3014 FEW035CB 
     BECMG 3015/3017 VRB02KT 4000 HZ FEW100 
     BECMG 3021/3022 00000KT 3000 HZ
       
VIDP 292030Z 10004KT 3500 HZ FEW040 27/22 Q1000 NOSIG
TAF VIDP 291700Z 2918/3024 09005KT 3500 HZ FEW040 
     TEMPO 2922/3002 27010G20KT 2000 -TSRA SCT030 FEW035CB BKN090 
     BECMG 3006/3008 12007G17KT 4000 HZ SCT035 
     TEMPO 3012/3018 29010G20KT 2000 -TSRA FEW035CB BKN090 
     BECMG 3020/3022 09005KT 3000 HZ FEW035
       
VIJO 291600Z 28003KT 6000 FEW025 SCT030 36/23 Q0999 TEMPO -RA
VIJP 292030Z 07006KT 4000 HZ FEW035 SCT100 29/21 Q1000 NOSIG
TAF VIJP 291400Z 2915/2924 10006KT 3000 HZ SCT035
       
VILK 292030Z 00000KT 3000 HZ FEW020 SCT100 28/22 Q0998
TAF VILK 291700Z 2918/3024 VRB02KT 3000 HZ SCT020 BKN100 
     TEMPO 2920/3002 32010G20KT 0800 DS TSRA FEW030CB BKN090 
     BECMG 3000/3002 11004KT 2000 HZ 
     BECMG 3004/3006 3000 HZ FEW025 SCT100 
     BECMG 3009/3011 05007KT 4000 HZ DU 
     TEMPO 3010/3016 1500 TSRA FEW030CB BKN090 
     BECMG 3018/3020 VRB02KT 2500 HZ SCT100
       
VEAT 291500Z 09003KT 4000 BR SCT020 OVC090 28/26 Q0999 NOSIG
VEBN 291830Z 00000KT 4000 HZ NSC 28/17 Q0999 NOSIG
TAF VEBN 291700Z 2918/3024 VRB02KT 3500 HZ FEW100 
     BECMG 3001/3003 12004KT 2500 HZ FEW025 SCT100 
     TEMPO 2922/3003 FEW030CB 
     BECMG 3009/3011 03005KT 5000 HZ SCT020 SCT100 
     BECMG 3018/3020 VRB02KT 3000 HZ SCT100 
     TEMPO 3009/3015 1500 TSRA FEW030CB BKN090
       
VEBS 291800Z 18005KT 5000 HZ FEW020 31/27 Q0998 NOSIG
VECC 292030Z 04007KT 2800 -RA SCT018 BKN090 26/24 Q0997 NOSIG
TAF VECC 291700Z 2918/3024 10005KT 2800 TSRA HZ SCT015 FEW025CB BKN090 
     BECMG 3002/3004 01011KT 2500 TSRA HZ 
     BECMG 3007/3009 3500 RA HZ SCT018 SCT090 
     TEMPO 3012/3016 1500 TSRA SCT015 FEW025CB BKN090
       
VEGT 291700Z 04002KT 3000 BR SCT020 BKN100 29/26 Q1001 NOSIG
VEGY 291600Z 29003KT 4000 HZ SCT018 BKN100 31/22 Q0999
VEPT 291930Z 05002KT 3000 HZ FEW100 30/25 Q0998 NOSIG
TAF VEPT 291100Z 2912/3018 05005KT 3000 HZ NSC 
     BECMG 2923/3001 00000 KT 2500 HZ FEW018 SCT100 
     BECMG 3003/3005 4000 HZ 
     BECMG 3007/3009 09008KT 5000 HZ SCT100 
     BECMG 3011/3013 09005KT 4000 HZ 
     BECMG 3015/3017 3000 HZ
       
VERC 292000Z 34002KT 2500 HZ SCT015 FEW030CB BKN100 22/22 Q1004 NOSIG
VEGT 291700Z 04002KT 3000 BR SCT020 BKN100 29/26 Q1001 NOSIG
VOBG 291800Z 24015KT 9999 FEW015 24/20 Q1011
TAF VOBG 292000Z 2921/3006 29010KT 6000 SCT015
       
VOBL 292030Z 25005KT 6000 FEW012 23/21 Q1010 NOSIG
TAF VOBL 292000Z 2921/3006 29010KT 6000 SCT015
       
VOBZ 291800Z 00000KT 2500 HZ FEW020 33/25 Q0999 NOSIG
VOCB 292000Z 20010KT 5000 BR FEW015 24/23 Q1009 NOSIG
TAF VOCB 291700Z 2918/3024 20010KT 6000 FEW015 SCT080 
     BECMG 2921/2922 VRB02KT 4000 BR 
     BECMG 3004/3005 20010KT 6000 
     TEMPO 3009/3015 20010G20KT SCT015 FEW025TCU/CB BKN080 
     BECMG 3021/3022 VRB02KT 4000 BR
       
VOCI 292030Z 00000KT 3000 BR SCT015 OVC080 24/22 Q1008 NOSIG
TAF VOCI 291700Z 2918/3024 29010KT 2000 RA BR SCT008 SCT012 FEW025CB OVC080 
     TEMPO 2922/3003 1500 TSRA RA 
     BECMG 3004/3005 29010G20KT 3000 RA BR SCT010 SCT015 BKN080 
     TEMPO 3010/3014 1500 TSRA RA SCT008 SCT012 FEW025CB OVC080 
     BECMG 3015/3016 29010KT 2000 RA BR SCT010 SCT015 BKN080 
     TEMPO 3022/3024 1500 TSRA RA SCT008 SCT012 FEW025CB OVC080
       
VOCL 292030Z 12003KT 5000 -DZ FEW008 SCT012 FEW025CB BKN080 25/24 Q1007 NOSIG
TAF VOCL 291700Z 2918/3024 29010KT 5000 RA BR SCT008 SCT012 FEW025CB OVC080 
     TEMPO 2922/3003 1500 TSRA RA 
     BECMG 3004/3005 5000 RA BR SCT010 SCT015 BKN080 
     TEMPO 3010/3014 29010G20KT 1500 TSRA RA SCT008 SCT012 FEW025CB OVC080 
     BECMG 3015/3016 29010KT 4000 RA BR SCT010 SCT015 BKN080
       
VOGO 291600Z 28008G15KT 4000 RA SCT014 FEW022TCU FEW090 28/24 Q1006 TEMPO 3000 RA/DZ
TAF VOHB 291100Z 2912/2921 29010KT 6000 SCT015 
     TEMPO 2912/2918 5000 TSRA RA SCT012 SCT020 FEW025CB
       
VOHS 292030Z 28014KT 6000 FEW020 30/22 Q1005 NOISIG
TAF VOHS 291700Z 2918/3024 24005KT 6000 FEW020 
     TEMPO 2919/2923 29006KT 5000 HZ FEW025 FEW030TCU SCT100 
     TEMPO 2923/3003 30006KT 5000 DZ HZ FEW030TCU SCT100 
     BECMG 3004/3006 27010KT 6000 FEW020 SCT100 
     TEMPO 3010/3019 24006KT 6000 FEW030CB SCT100 
     TEMPO 3021/3024 VRB04KT 4000 DZ HZ FEW030TCU SCT100 
       
VOHY 291600Z VRB03KT 6000 FEW020 33/15 Q1005 NOSIG
VOMD 291900Z 28006KT 6000 SCT018 BKN100 27/25 Q1006 NOSIG
TAF VOMD 291700Z 2918/3024 32010KT 5000 HZ FEW020 BKN100 
     TEMPO 2918/2921 SCT016 FEW025CB BKN080 
     BECMG 2921/2922 VRB02KT 3000 HZ 
     BECMG 3003/3004 32010KT 6000 
     TEMPO 3009/3015 4000 -TSRA/RA SCT016 FEW025CB BKN080 
     BECMG 3021/3022 VRB02KT 3000 HZ
       
VOML 291830Z 00000KT 6000 SCT015 FEW025CB 27/25 Q1008 NOSIG
TAF VOML 292000Z 2921/3006 09005KT 6000 SCT015
       
VOMM 292030Z 20007KT 6000 NSC 33/24 Q1001 NOSIG
TAF VOMM 291700Z 2918/3024 25010KT 5000 HZ FEW020 SCT100 
     BECMG 3003/3004 6000 
     TEMPO 3003/3009 25010G20KT 
     BECMG 3010/3011 16010KT 
     TEMPO 3012/3018 4000 -TSRA/RA SCT020 FEW025TCU/CB BKN100 
     BECMG 3018/3019 25010KT 5000 HZ
       
VOTP 291500Z 29005KT 6000 FEW020 35/21 Q1001
VOTR 292030Z 28010G20KT 5000 HZ FEW016 SCT100 30/22 Q1004 NOSIG
TAF VOTR 291700Z 2918/3024 29010KT 5000 HZ FEW016 SCT100 
     TEMPO 2918/2921 SCT016 FEW025CB BKN100 
     BECMG 3003/3004 29015G25KT 6000 
     TEMPO 3009/3015 SCT016 FEW025TCU/CB BKN100 
     BECMG 3018/3019 29010KT 4000 HZ
       
VOTV 292030Z 30010G20KT 3000 -RA FEW010 SCT012 FEW025CB OVC080 25/23 Q1008 TEMPO 2000 RA
TAF VOTV 291700Z 2918/3024 29010KT 2000 RA BR SCT010 SCT015 FEW025CB OVC080 
     TEMPO 2922/3003 1500 TSRA RA 
     BECMG 3004/3005 29010G20KT 2000 RA BR SCT010 SCT015 BKN080 
     TEMPO 3010/3014 1500 TSRA RA SCT008 SCT012 FEW025CB OVC080 
     BECMG 3015/3016 30010KT 2000 RA BR SCT010 SCT015 BKN080 
     TEMPO 3022/3024 1500 TSRA RA SCT008 SCT012 FEW025CB OVC080
       
VOVZ 291800Z 00000KT 5000 HZ FEW018 32/27 Q0998 NOSIG
VIAG 291830Z 06004KT 6000 FEW030 27/22 Q1000 NOSIG
VIAR 292030Z VRB03KT 3000 DU FEW040 29/18 Q1000 NOSIG
TAF VIAR 291700Z 2918/3024 14006KT 3000 DU FEW040 SCT100 
     TEMPO 2920/3001 270G20KT 2000 -TSRA SCT030 FEW035CB BKN090 
     BECMG 3006/3008 11007G17KT 5000 HZ 
     TEMPO 3009/3014 FEW035CB 
     BECMG 3015/3017 VRB02KT 4000 HZ FEW100 
     BECMG 3021/3022 00000KT 3000 HZ
       
VIDP 292030Z 10004KT 3500 HZ FEW040 27/22 Q1000 NOSIG
TAF VIDP 291700Z 2918/3024 09005KT 3500 HZ FEW040 
     TEMPO 2922/3002 27010G20KT 2000 -TSRA SCT030 FEW035CB BKN090 
     BECMG 3006/3008 12007G17KT 4000 HZ SCT035 
     TEMPO 3012/3018 29010G20KT 2000 -TSRA FEW035CB BKN090 
     BECMG 3020/3022 09005KT 3000 HZ FEW035
       
VIJO 291600Z 28003KT 6000 FEW025 SCT030 36/23 Q0999 TEMPO -RA
VIJP 292030Z 07006KT 4000 HZ FEW035 SCT100 29/21 Q1000 NOSIG
TAF VIJP 291400Z 2915/2924 10006KT 3000 HZ SCT035
       
VILK 292030Z 00000KT 3000 HZ FEW020 SCT100 28/22 Q0998
TAF VILK 291700Z 2918/3024 VRB02KT 3000 HZ SCT020 BKN100 
     TEMPO 2920/3002 32010G20KT 0800 DS TSRA FEW030CB BKN090 
     BECMG 3000/3002 11004KT 2000 HZ 
     BECMG 3004/3006 3000 HZ FEW025 SCT100 
     BECMG 3009/3011 05007KT 4000 HZ DU 
     TEMPO 3010/3016 1500 TSRA FEW030CB BKN090 
     BECMG 3018/3020 VRB02KT 2500 HZ SCT100
       
VIAG 291830Z 06004KT 6000 FEW030 27/22 Q1000 NOSIG
VIAR 292030Z VRB03KT 3000 DU FEW040 29/18 Q1000 NOSIG
TAF VIAR 291700Z 2918/3024 14006KT 3000 DU FEW040 SCT100 
     TEMPO 2920/3001 270G20KT 2000 -TSRA SCT030 FEW035CB BKN090 
     BECMG 3006/3008 11007G17KT 5000 HZ 
     TEMPO 3009/3014 FEW035CB 
     BECMG 3015/3017 VRB02KT 4000 HZ FEW100 
     BECMG 3021/3022 00000KT 3000 HZ
       
VIDP 292030Z 10004KT 3500 HZ FEW040 27/22 Q1000 NOSIG
TAF VIDP 291700Z 2918/3024 09005KT 3500 HZ FEW040 
     TEMPO 2922/3002 27010G20KT 2000 -TSRA SCT030 FEW035CB BKN090 
     BECMG 3006/3008 12007G17KT 4000 HZ SCT035 
     TEMPO 3012/3018 29010G20KT 2000 -TSRA FEW035CB BKN090 
     BECMG 3020/3022 09005KT 3000 HZ FEW035
       
VIJO 291600Z 28003KT 6000 FEW025 SCT030 36/23 Q0999 TEMPO -RA
VIJP 292030Z 07006KT 4000 HZ FEW035 SCT100 29/21 Q1000 NOSIG
TAF VIJP 291400Z 2915/2924 10006KT 3000 HZ SCT035
       
VILK 292030Z 00000KT 3000 HZ FEW020 SCT100 28/22 Q0998
TAF VILK 291700Z 2918/3024 VRB02KT 3000 HZ SCT020 BKN100 
     TEMPO 2920/3002 32010G20KT 0800 DS TSRA FEW030CB BKN090 
     BECMG 3000/3002 11004KT 2000 HZ 
     BECMG 3004/3006 3000 HZ FEW025 SCT100 
     BECMG 3009/3011 05007KT 4000 HZ DU 
     TEMPO 3010/3016 1500 TSRA FEW030CB BKN090 
     BECMG 3018/3020 VRB02KT 2500 HZ SCT100
       
VEAT 291500Z 09003KT 4000 BR SCT020 OVC090 28/26 Q0999 NOSIG
VEBN 291830Z 00000KT 4000 HZ NSC 28/17 Q0999 NOSIG
TAF VEBN 291700Z 2918/3024 VRB02KT 3500 HZ FEW100 
     BECMG 3001/3003 12004KT 2500 HZ FEW025 SCT100 
     TEMPO 2922/3003 FEW030CB 
     BECMG 3009/3011 03005KT 5000 HZ SCT020 SCT100 
     BECMG 3018/3020 VRB02KT 3000 HZ SCT100 
     TEMPO 3009/3015 1500 TSRA FEW030CB BKN090
       
VEBS 291800Z 18005KT 5000 HZ FEW020 31/27 Q0998 NOSIG
VECC 292030Z 04007KT 2800 -RA SCT018 BKN090 26/24 Q0997 NOSIG
TAF VECC 291700Z 2918/3024 10005KT 2800 TSRA HZ SCT015 FEW025CB BKN090 
     BECMG 3002/3004 01011KT 2500 TSRA HZ 
     BECMG 3007/3009 3500 RA HZ SCT018 SCT090 
     TEMPO 3012/3016 1500 TSRA SCT015 FEW025CB BKN090
       
VEGT 291700Z 04002KT 3000 BR SCT020 BKN100 29/26 Q1001 NOSIG
VEGY 291600Z 29003KT 4000 HZ SCT018 BKN100 31/22 Q0999
VEPT 291930Z 05002KT 3000 HZ FEW100 30/25 Q0998 NOSIG
TAF VEPT 291100Z 2912/3018 05005KT 3000 HZ NSC 
     BECMG 2923/3001 00000 KT 2500 HZ FEW018 SCT100 
     BECMG 3003/3005 4000 HZ 
     BECMG 3007/3009 09008KT 5000 HZ SCT100 
     BECMG 3011/3013 09005KT 4000 HZ 
     BECMG 3015/3017 3000 HZ
       
VERC 292000Z 34002KT 2500 HZ SCT015 FEW030CB BKN100 22/22 Q1004 NOSIG
VOHY 291600Z VRB03KT 6000 FEW020 33/15 Q1005 NOSIG
VIDP 292030Z 10004KT 3500 HZ FEW040 27/22 Q1000 NOSIG
TAF VIDP 291700Z 2918/3024 09005KT 3500 HZ FEW040 
     TEMPO 2922/3002 27010G20KT 2000 -TSRA SCT030 FEW035CB BKN090 
     BECMG 3006/3008 12007G17KT 4000 HZ SCT035 
     TEMPO 3012/3018 29010G20KT 2000 -TSRA FEW035CB BKN090 
     BECMG 3020/3022 09005KT 3000 HZ FEW035
       
VIJP 292030Z 07006KT 4000 HZ FEW035 SCT100 29/21 Q1000 NOSIG
TAF VIJP 291400Z 2915/2924 10006KT 3000 HZ SCT035
       
VIJO 291600Z 28003KT 6000 FEW025 SCT030 36/23 Q0999 TEMPO -RA
VILK 292030Z 00000KT 3000 HZ FEW020 SCT100 28/22 Q0998
TAF VILK 291700Z 2918/3024 VRB02KT 3000 HZ SCT020 BKN100 
     TEMPO 2920/3002 32010G20KT 0800 DS TSRA FEW030CB BKN090 
     BECMG 3000/3002 11004KT 2000 HZ 
     BECMG 3004/3006 3000 HZ FEW025 SCT100 
     BECMG 3009/3011 05007KT 4000 HZ DU 
     TEMPO 3010/3016 1500 TSRA FEW030CB BKN090 
     BECMG 3018/3020 VRB02KT 2500 HZ SCT100
       
VOMD 291900Z 28006KT 6000 SCT018 BKN100 27/25 Q1006 NOSIG
TAF VOMD 291700Z 2918/3024 32010KT 5000 HZ FEW020 BKN100 
     TEMPO 2918/2921 SCT016 FEW025CB BKN080 
     BECMG 2921/2922 VRB02KT 3000 HZ 
     BECMG 3003/3004 32010KT 6000 
     TEMPO 3009/3015 4000 -TSRA/RA SCT016 FEW025CB BKN080 
     BECMG 3021/3022 VRB02KT 3000 HZ
       
VOML 291830Z 00000KT 6000 SCT015 FEW025CB 27/25 Q1008 NOSIG
TAF VOML 292000Z 2921/3006 09005KT 6000 SCT015
       
VANP 292030Z 05005KT 4000 HZ FEW020 FEW030CB SCT100 30/18 Q1001 NOSIG
TAF VANP 291700Z 2918/3024 VRB03KT 5000 HZ FEW020 
     BECMG 3000/3002 27008KT 
     BECMG 3004/3006 6000 FEW020 
     BECMG 3012/3014 VRB03KT 5000 HZ SCT020 SCT025 FEW030CB 
     TEMPO 3010/3014 32010G20KT 1500 -TSRA SCT020 SCT025 FEW030CB BKN090
       
VECC 292030Z 04007KT 2800 -RA SCT018 BKN090 26/24 Q0997 NOSIG
TAF VECC 291700Z 2918/3024 10005KT 2800 TSRA HZ SCT015 FEW025CB BKN090 
     BECMG 3002/3004 01011KT 2500 TSRA HZ 
     BECMG 3007/3009 3500 RA HZ SCT018 SCT090 
     TEMPO 3012/3016 1500 TSRA SCT015 FEW025CB BKN090
       
VEPT 291930Z 05002KT 3000 HZ FEW100 30/25 Q0998 NOSIG
TAF VEPT 291100Z 2912/3018 05005KT 3000 HZ NSC 
     BECMG 2923/3001 00000 KT 2500 HZ FEW018 SCT100 
     BECMG 3003/3005 4000 HZ 
     BECMG 3007/3009 09008KT 5000 HZ SCT100 
     BECMG 3011/3013 09005KT 4000 HZ 
     BECMG 3015/3017 3000 HZ
       
VARK 291600Z 23008KT 6000 SCT020 32/24 Q1000
VOTV 292030Z 30010G20KT 3000 -RA FEW010 SCT012 FEW025CB OVC080 25/23 Q1008 TEMPO 2000 RA
TAF VOTV 291700Z 2918/3024 29010KT 2000 RA BR SCT010 SCT015 FEW025CB OVC080 
     TEMPO 2922/3003 1500 TSRA RA 
     BECMG 3004/3005 29010G20KT 2000 RA BR SCT010 SCT015 BKN080 
     TEMPO 3010/3014 1500 TSRA RA SCT008 SCT012 FEW025CB OVC080 
     BECMG 3015/3016 30010KT 2000 RA BR SCT010 SCT015 BKN080 
     TEMPO 3022/3024 1500 TSRA RA SCT008 SCT012 FEW025CB OVC080
       
VOTR 292030Z 28010G20KT 5000 HZ FEW016 SCT100 30/22 Q1004 NOSIG
TAF VOTR 291700Z 2918/3024 29010KT 5000 HZ FEW016 SCT100 
     TEMPO 2918/2921 SCT016 FEW025CB BKN100 
     BECMG 3003/3004 29015G25KT 6000 
     TEMPO 3009/3015 SCT016 FEW025TCU/CB BKN100 
     BECMG 3018/3019 29010KT 4000 HZ
       
VOTP 291500Z 29005KT 6000 FEW020 35/21 Q1001
VAUD 291500Z 27004KT 4000 HZ FEW035 33/23 Q1001 BECMG 5000 HZ
VOBZ 291800Z 00000KT 2500 HZ FEW020 33/25 Q0999 NOSIG